Weather History for Mobile, AL

Change the Weather History Date:

Tuesday, February 5, 2013

  Actual Average Record
Temperature  
Mean Temperature 60 °F 52 °F  
Max Temperature 69 °F 63 °F 80 °F (1921)
Min Temperature 51 °F 41 °F 11 °F (1996)
Degree Days  
Heating Degree Days 5 13  
Month to date heating degree days 56 68  
Since 1 July heating degree days 967 1189  
Cooling Degree Days 0 0  
Month to date cooling degree days 0 0  
Year to date cooling degree days 26 7  
Growing Degree Days 10 (Base 50)    
Moisture  
Dew Point 55 °F    
Average Humidity 83    
Maximum Humidity 93    
Minimum Humidity 73    
Precipitation  
Precipitation 0.78 in 0.18 in 2.42 in (1896)
Month to date precipitation 0.84 0.93  
Year to date precipitation 3.71 6.58  
Snow  
Snow 0.00 in 0.00 in - ()
Month to date snowfall 0.0 0.0  
Since 1 July snowfall 0.0 T  
Snow Depth 0.00 in    
Sea Level Pressure  
Sea Level Pressure 30.01 in    
Wind  
Wind Speed 5 mph (ESE)    
Max Wind Speed 17 mph    
Max Gust Speed 20 mph    
Visibility 6 miles    
Events Fog , Rain    
T = Trace of Precipitation, MM = Missing Value Source: NWS Daily Summary

Daily Weather History Graph

Daily Weather History Graph

Search for Another Location

Airport:

Trip Planner

Search our weather history database for the weather conditions in past years. The results will help you decide how hot, cold, wet, or windy it might be!

Date:

Astronomy

Feb. 05, 2013 Rise Set
Actual Time 6:41 AM CST 5:32 PM CST
Civil Twilight 6:16 AM CST 5:57 PM CST
Nautical Twilight 5:47 AM CST 6:26 PM CST
Astronomical Twilight 5:19 AM CST 6:54 PM CST
Moon 2:15 AM CST (2/5) 12:57 PM CST (2/5)
Length of Visible Light 11h 41m
Length of Day
10h 51m
Waning Crescent, 26% of the Moon is Illuminated
Feb 5
Waning Crescent
Feb 10
New
Feb 17
First Quarter
Feb 25
Full
Mar 4
Last Quarter

Hourly Weather History & Observations

Time (CST) Temp. Dew Point Humidity Pressure Visibility Wind Dir Wind Speed Gust Speed Precip Events Conditions
12:56 AM 55.0 °F 53.1 °F 93% 30.00 in 6.0 mi ESE 4.6 mph - 0.04 in Rain Rain
1:56 AM 55.0 °F 53.1 °F 93% 29.98 in 5.0 mi East 4.6 mph - 0.12 in Rain Heavy Rain
2:56 AM 55.0 °F 53.1 °F 93% 30.00 in 5.0 mi Calm Calm - 0.20 in Rain Rain
3:56 AM 55.9 °F 54.0 °F 93% 29.97 in 5.0 mi ESE 6.9 mph - 0.14 in Rain Rain
4:56 AM 55.9 °F 54.0 °F 93% 29.97 in 8.0 mi SE 10.4 mph - 0.05 in Rain Light Rain
5:56 AM 55.9 °F 54.0 °F 93% 29.98 in 7.0 mi SE 15.0 mph - 0.03 in Rain Light Rain
6:56 AM 57.9 °F 55.0 °F 90% 29.99 in 3.0 mi East 8.1 mph - 0.06 in Rain Light Rain
7:23 AM 57.2 °F 55.4 °F 94% 30.01 in 4.0 mi East 5.8 mph - 0.01 in Rain Light Rain
7:56 AM 59.0 °F 55.9 °F 90% 30.02 in 3.0 mi ESE 11.5 mph - 0.05 in Rain Heavy Rain
8:03 AM 59.0 °F 55.4 °F 88% 30.02 in 1.8 mi ESE 13.8 mph - N/A Rain Heavy Rain
8:20 AM 59.0 °F 55.4 °F 88% 30.01 in 2.0 mi ESE 16.1 mph - 0.07 in Rain Rain
8:26 AM 59.0 °F 55.4 °F 88% 30.01 in 3.0 mi SE 17.3 mph - 0.07 in Rain Light Rain
8:56 AM 59.0 °F 57.0 °F 93% 30.01 in 3.0 mi ESE 10.4 mph - 0.09 in Rain Light Rain
9:10 AM 60.8 °F 57.2 °F 88% 30.02 in 5.0 mi ESE 9.2 mph - 0.00 in   Light Drizzle
9:25 AM 60.8 °F 57.2 °F 88% 30.03 in 7.0 mi East 9.2 mph - N/A   Light Drizzle
9:56 AM 61.0 °F 57.0 °F 87% 30.03 in 8.0 mi East 9.2 mph - 0.00 in   Overcast
10:49 AM 60.8 °F 57.2 °F 88% 30.03 in 10.0 mi East 10.4 mph - N/A   Overcast
10:56 AM 61.0 °F 57.0 °F 87% 30.03 in 10.0 mi ESE 8.1 mph - N/A   Overcast
11:56 AM 62.1 °F 57.9 °F 86% 30.02 in 10.0 mi East 5.8 mph - N/A   Overcast
12:23 PM 62.6 °F 57.2 °F 82% 30.01 in 10.0 mi ESE 4.6 mph - N/A   Overcast
12:30 PM 62.6 °F 57.2 °F 82% 30.01 in 10.0 mi SE 5.8 mph - N/A   Overcast
12:56 PM 63.0 °F 57.9 °F 84% 30.00 in 10.0 mi Calm Calm - N/A   Overcast
1:40 PM 64.4 °F 59.0 °F 83% 29.99 in 10.0 mi Calm Calm - N/A   Mostly Cloudy
1:56 PM 64.9 °F 59.0 °F 81% 29.99 in 10.0 mi SE 4.6 mph - N/A   Overcast
2:42 PM 66.2 °F 60.8 °F 83% 29.97 in 10.0 mi SSE 5.8 mph - N/A   Mostly Cloudy
2:56 PM 66.9 °F 59.0 °F 76% 29.97 in 10.0 mi ESE 5.8 mph - N/A   Mostly Cloudy
3:51 PM 68.0 °F 59.0 °F 73% 29.97 in 10.0 mi ESE 3.5 mph - N/A   Mostly Cloudy
3:56 PM 68.0 °F 59.0 °F 73% 29.97 in 10.0 mi SE 4.6 mph - N/A   Mostly Cloudy
4:56 PM 64.9 °F 59.0 °F 81% 29.98 in 10.0 mi SE 3.5 mph - N/A   Mostly Cloudy
5:56 PM 62.1 °F 57.9 °F 86% 29.98 in 10.0 mi East 3.5 mph - N/A   Scattered Clouds
6:56 PM 60.1 °F 57.0 °F 90% 30.00 in 10.0 mi Calm Calm - N/A   Scattered Clouds
7:56 PM 57.2 °F 55.4 °F 94% 30.01 in 6.0 mi Calm Calm - N/A Fog Partly Cloudy
8:46 PM 55.4 °F 53.6 °F 94% 30.03 in 3.0 mi Calm Calm - N/A Fog Scattered Clouds
8:56 PM 55.0 °F 54.0 °F 96% 30.03 in 3.0 mi Calm Calm - N/A Fog Scattered Clouds
9:56 PM 54.0 °F 52.0 °F 93% 30.03 in 3.0 mi Calm Calm - N/A Fog Scattered Clouds
10:07 PM 53.6 °F 51.8 °F 94% 30.04 in 2.5 mi Calm Calm - N/A Fog Mostly Cloudy
10:47 PM 51.8 °F 51.8 °F 100% 30.04 in 1.2 mi Calm Calm - N/A Fog Mostly Cloudy
10:56 PM 53.1 °F 51.1 °F 93% 30.04 in 1.2 mi North 3.5 mph - N/A Fog Mostly Cloudy
11:04 PM 51.8 °F 51.8 °F 100% 30.04 in 2.0 mi North 3.5 mph - N/A   Partly Cloudy
11:11 PM 51.8 °F 51.8 °F 100% 30.04 in 1.0 mi NNE 3.5 mph - N/A   Mist
11:18 PM 51.8 °F 51.8 °F 100% 30.05 in 0.2 mi NNE 3.5 mph - N/A Fog Fog
11:25 PM 51.8 °F 51.8 °F 100% 30.05 in 0.8 mi Calm Calm - N/A   Mist
11:27 PM 51.8 °F 51.8 °F 100% 30.05 in 1.2 mi Calm Calm - N/A   Partly Cloudy
11:30 PM 51.8 °F 51.8 °F 100% 30.05 in 0.8 mi Calm Calm - N/A   Mist
11:41 PM 51.8 °F 50.0 °F 94% 30.04 in 0.2 mi Calm Calm - N/A Fog Fog
11:56 PM 53.1 °F 52.0 °F 96% 30.04 in 0.2 mi Calm Calm - N/A Fog Fog